CZ-4 DEB

Satellite information

Favourite Embed

Satellite Type and Status

DEBRISIN ORBIT

Key statistics

Satellite CZ-4 DEB at a glance.

Uptime

6562

Days in orbit

Revolutions

≈ 14.2

Per day

Orbit

SSO

Sun Synchronous Orbit

Inclination

98.8

Latest

Satellite identification and parameters

Extended collection of information and parameters for CZ-4 DEB.

Object identification

Identified? True

Debris? True

Object name: CZ-4 DEB

International designator: 2007-042G

Object number (NORAD): 35567

Object ID (CCSDS): 35567

Country: PEOPLES REPUBLIC OF CHINA (PRC)

Current information (Y/N): Y

RCS size: SMALL

Orbital parameters

Period: 101.53 minutes

Inclination: 98.8388 deg

SMA: 7209.25 km

Apoapsis: 841.242 km

Periapsis: 820.988 km

RAAN: 194.5615 deg

Eccentricy: 0.00140471

Argument of periapsis: 313.9615 deg

Mean anomaly: 46.0401 deg

Mean motion: 14.18298448 rev/day

Mean motion (dot): 0.00000994 rev/day2

B* drag term: 0.00050374348 1/REarth

Two-line elements (TLE)

Creation date: Aug. 28, 2025, 11:13 p.m.

Reference frame: TEME

Reference center: EARTH

Epoch: Aug. 28, 2025, 2:51 a.m. UTC

TLE line 0: 0 CZ-4 DEB

TLE line 1: 1 35567U 07042G 25240.11930990 .00000994 00000-0 50374-3 0 9998

TLE line 2: 2 35567 98.8388 194.5615 0014047 313.9615 46.0401 14.18298448621235

Live tracking on map

Real-time ground track for satellite CZ-4 DEB.

In-orbit conjunctions

A list of the most updated potential collisions computed for object CZ-4 DEB.

Target Orbit TCA Probability of collision Miss distance Type
METEOR 1-15 LEO 2024-11-16 17:25:47 0.006552593 39.0 (m) PAYLOAD
CZ-6A DEB SSO 2024-11-11 14:34:22 0.0001406706 990.0 (m) DEBRIS

Associated space launch

Chinese-Brazilian Earth observation satellite

CZ-4 DEB was lifted into orbit during the mission ‘Long March 4B | Zi Yuan 1-2B’, on board a Long March 4B space rocket.

The launch took place on Sept. 19, 2007, 3:26 a.m. from Launch Complex 7.

For more information about the launch, click the button.

Launch to space Long March 4B | Zi Yuan 1-2B
Long March 4B | Zi Yuan 1-2B

Agency: N/A

Status: Launch Successful

Launch date: Sept. 19, 2007, 3:26 a.m. UTC

Rocket: Long March 4B

Launch pad: Launch Complex 7

Location: Taiyuan Satellite Launch Center, People's Republic of China

...

Latest news about this satellite

There are no fresh news available about this satellite. Check back as we update our databases every day.


Newsletter sign-up

Weekly statistics, charts and insights to help you stay on top of the space industry.